[[{"header":{"parameterUnit":"m.s-1","parameterCategory":2,"la1":30.2991,"la2":30.254,"lo1":-89.0895,"lo2":-89.0444,"dy":0.0017,"dx":0.0017,"nx":28,"ny":28,"refTime":"2024-06-07T03:00:00:Z","depth":"0","parameterNumber":2,"parameterNumberName":"U-component_of_CURRENTS"},"data":[0,0,0,0,0,0,0,0,0,0,0,0,0,0,0,0,0,0,0,0,0,0,0,0,0,0,0,0,0,0,0,0,0,0,0,0,0,0,0,0,0,0,0,0,0,0,0,0,0,0,0,0,0,0,0,0,0,0,0.196,0.1961,0,0.2086,0.2087,0.2088,0.2108,0.2107,0.2106,0.2105,0.2151,0.2154,0.2156,0,0,0,0,0,0,0,0,0,0,0,0,0,0.1766,0.1769,0.196,0.1962,0.1963,0.2085,0.2087,0.2088,0.2108,0.2107,0.2106,0.2105,0.2151,0.2153,0.2156,0,0,0,0,0,0,0,0,0,0,0,0,0,0.1865,0.177,0.196,0.1989,0.1993,0.2085,0.2087,0.2089,0.2108,0.2107,0.2106,0.2104,0.215,0.2153,0.2156,0.2204,0,0,0.2166,0.2167,0,0,0,0,0,0,0,0,0.1859,0.1872,0.1983,0.1987,0.1992,0.2081,0.2036,0.2124,0.2109,0.2063,0.2105,0.2104,0.2123,0.2128,0.2154,0.2207,0.2208,0.2166,0.2168,0.2169,0.217,0,0,0,0,0,0,0,0.1852,0.1867,0.2008,0.1985,0.1991,0.2006,0.2018,0.2053,0.2096,0.2067,0.2069,0.2086,0.2124,0.2151,0.2155,0.2209,0.2166,0.2169,0.2171,0.2172,0.2308,0.2309,0,0,0,0,0,0,0.1841,0.1861,0.2004,0.2012,0.1923,0.2011,0.2024,0.2053,0.2098,0.2105,0.2087,0.2087,0.2146,0.2151,0.2156,0.2234,0.2169,0.2172,0.2174,0.2306,0.2308,0.231,0,0,0,0,0,0,0.1837,0.1853,0.1999,0.1939,0.1959,0.2016,0.2047,0.2056,0.2085,0.2115,0.2119,0.2108,0.2145,0.2152,0.2203,0.2234,0.2174,0.2177,0.2304,0.2307,0.2309,0.2376,0,0,0,0,0,0,0.1831,0.1851,0.1869,0.1939,0.1962,0.2065,0.2049,0.2059,0.2099,0.2099,0.2134,0.2137,0.2144,0.2198,0.2206,0.2238,0.2179,0.2302,0.2305,0.2308,0.2372,0.2381,0.2389,0,0,0,0,0,0.1824,0.1858,0.187,0.1887,0.1985,0.2067,0.2081,0.2113,0.2101,0.213,0.2152,0.2136,0.2223,0.2203,0.2211,0.2245,0.23,0.2304,0.2308,0.2368,0.2379,0.2388,0,0,0,0,0,0,0.1785,0.1866,0.1879,0.1937,0.2,0.207,0.2104,0.212,0.2163,0.2159,0.2168,0.2175,0.2227,0.223,0.2208,0.2292,0.2255,0.2261,0.2298,0.2308,0.2316,0.2293,0.2182,0,0,0,0,0,0.1786,0.1832,0.1908,0.1955,0.1988,0.2045,0.208,0.2106,0.2153,0.217,0.2193,0.2218,0.2253,0.2274,0.2302,0.2359,0.237,0.2382,0.239,0.2397,0.2384,0.2422,0.2433,0.2322,0.2322,0.2322,0,0,0.1782,0.1835,0.1859,0.195,0.1999,0.2062,0.2063,0.2128,0.2172,0.2169,0.2229,0.2249,0.2273,0.2334,0.2356,0.234,0.2448,0.2402,0.2408,0.239,0.2427,0.2438,0.2447,0.2325,0.2324,0.2324,0,0,0.1809,0.185,0.19,0.1958,0.2041,0.208,0.2098,0.2175,0.2201,0.2267,0.2272,0.2308,0.2367,0.2393,0.2411,0.2482,0.2487,0.2494,0.2524,0.2563,0.2572,0.2579,0.2663,0.2678,0.2502,0.2502,0.2502,0,0.1798,0.1877,0.1927,0.1995,0.2043,0.2087,0.215,0.2195,0.2273,0.2298,0.2289,0.2372,0.2391,0.2458,0.2483,0.2499,0.2536,0.2486,0.2573,0.258,0.2587,0.267,0.2686,0.2506,0.2505,0.2505,0.2505,0,0.1873,0.1931,0.1969,0.2064,0.2119,0.2185,0.2251,0.2299,0.2322,0.2358,0.2421,0.2452,0.2495,0.2515,0.2524,0.2589,0.2609,0.2577,0.2545,0.2602,0.2687,0.2702,0.2511,0.251,0.2509,0.2508,0,0,0.1868,0.1993,0.2008,0.2055,0.2161,0.2215,0.2289,0.2369,0.2407,0.246,0.2509,0.2567,0.2567,0.2587,0.2604,0.2636,0.2738,0.2631,0.2632,0.2711,0.2869,0.3046,0.3079,0.2724,0.2726,0.2727,0.2929,0,0.1912,0.2028,0.2084,0.2183,0.2246,0.2304,0.2367,0.2436,0.248,0.2537,0.2564,0.2615,0.2602,0.2628,0.266,0.271,0.277,0.2688,0.2803,0.2807,0.2953,0.3099,0.3072,0.3263,0.2943,0.2946,0.2947,0,0.1976,0.2043,0.2141,0.2241,0.2273,0.2326,0.242,0.2484,0.2562,0.2597,0.2641,0.2663,0.2735,0.2697,0.2819,0.2772,0.2827,0.2858,0.2867,0.3007,0.301,0.3144,0.3301,0.3171,0.2969,0.2967,0.2966,0,0.1959,0.2084,0.2153,0.2195,0.2311,0.235,0.2405,0.2491,0.2554,0.2628,0.268,0.2742,0.2803,0.2848,0.2963,0.2885,0.3111,0.3006,0.3224,0.3238,0.3224,0.3236,0.3258,0.309,0.3089,0.3089,0.3088,0,0.1993,0.2052,0.2143,0.2186,0.2255,0.2337,0.2406,0.2472,0.2571,0.2645,0.27,0.279,0.284,0.2981,0.302,0.3237,0.3177,0.3275,0.3314,0.3258,0.327,0.316,0.3094,0.3096,0.3095,0.3093,0.3092,0,0.1972,0.2042,0.2116,0.2218,0.225,0.2292,0.2409,0.2461,0.2564,0.2666,0.2701,0.2866,0.3072,0.3191,0.3326,0.3369,0.3445,0.3594,0.3572,0.3606,0.3642,0.3583,0.3532,0.3429,0.3825,0.3831,0.3836,0,0.1969,0.2006,0.2107,0.2138,0.2181,0.2253,0.2306,0.2433,0.25,0.2721,0.2776,0.3032,0.3237,0.3586,0.3726,0.3928,0.3702,0.3982,0.3811,0.3702,0.366,0.3414,0.3307,0.3827,0.3831,0.3835,0.3838,0,0.1945,0.1975,0.2028,0.2088,0.2141,0.2216,0.2304,0.2375,0.2533,0.2692,0.2941,0.3141,0.3528,0.3778,0.4091,0.4164,0.381,0.4066,0.3915,0.3673,0.3435,0.3336,0.3658,0.387,0.3867,0.3864,0.3862,0.3861,0.1903,0.1925,0.1982,0.2051,0.21,0.2181,0.2256,0.2381,0.2562,0.2814,0.301,0.3326,0.3684,0.4153,0.4208,0.4267,0.4111,0.4131,0.4078,0.3842,0.3708,0.4171,0.4451,0.4451,0.4451,0.4451,0.4451,0,0.1882,0.1918,0.1949,0.2035,0.2082,0.2139,0.2264,0.2358,0.2581,0.2836,0.3117,0.3556,0.387,0.4074,0.4326,0.4258,0.3949,0.4129,0.3683,0.358,0.398,0.3945,0.4173,0.4173,0.4173,0.4173,0.4173,0.4173,0.1873,0.1908,0.1945,0.2015,0.2077,0.217,0.2262,0.2407,0.2585,0.2929,0.3196,0.3438,0.3804,0.414,0.4173,0.4095,0.3698,0.3651,0.3511,0.3722,0.371,0.3699,0.3644,0.3806,0.3806,0.2934,0.2928,0.2924]},{"header":{"parameterUnit":"m.s-1","parameterCategory":2,"la1":30.2991,"la2":30.254,"lo1":-89.0895,"lo2":-89.0444,"dy":0.0017,"dx":0.0017,"nx":28,"ny":28,"refTime":"2024-06-07T03:00:00:Z","depth":"0","parameterNumber":3,"parameterNumberName":"V-component_of_CURRENTS"},"data":[0,0,0,0,0,0,0,0,0,0,0,0,0,0,0,0,0,0,0,0,0,0,0,0,0,0,0,0,0,0,0,0,0,0,0,0,0,0,0,0,0,0,0,0,0,0,0,0,0,0,0,0,0,0,0,0,0,0,-0.038,-0.0381,0,-0.0413,-0.0413,-0.0413,-0.0384,-0.0383,-0.0382,-0.0382,-0.0351,-0.0351,-0.0351,0,0,0,0,0,0,0,0,0,0,0,0,0,-0.0266,-0.0269,-0.038,-0.0381,-0.0382,-0.0413,-0.0413,-0.0413,-0.0384,-0.0383,-0.0382,-0.0381,-0.0351,-0.0351,-0.0351,0,0,0,0,0,0,0,0,0,0,0,0,0,-0.0307,-0.0269,-0.038,-0.0373,-0.0373,-0.0413,-0.0413,-0.0413,-0.0385,-0.0383,-0.0382,-0.0381,-0.0351,-0.0351,-0.0351,-0.0379,0,0,-0.0351,-0.0351,0,0,0,0,0,0,0,0,-0.0304,-0.0311,-0.0373,-0.0374,-0.0374,-0.0395,-0.0362,-0.04,-0.0385,-0.0377,-0.0382,-0.038,-0.0363,-0.0362,-0.0368,-0.0378,-0.0377,-0.0351,-0.0351,-0.0351,-0.0351,0,0,0,0,0,0,0,-0.0302,-0.0309,-0.039,-0.0374,-0.0374,-0.0359,-0.0363,-0.0369,-0.0374,-0.0378,-0.0377,-0.0385,-0.0362,-0.0368,-0.0367,-0.0376,-0.0351,-0.0351,-0.0351,-0.0351,-0.0448,-0.0451,0,0,0,0,0,0,-0.0307,-0.0307,-0.0389,-0.0392,-0.0338,-0.0363,-0.0367,-0.0388,-0.0375,-0.0374,-0.0386,-0.0384,-0.0369,-0.0367,-0.0366,-0.0425,-0.0351,-0.0351,-0.0351,-0.0446,-0.0449,-0.0452,0,0,0,0,0,0,-0.0304,-0.0314,-0.0388,-0.0351,-0.0359,-0.0367,-0.039,-0.0389,-0.0397,-0.0383,-0.0379,-0.0395,-0.0367,-0.0366,-0.0396,-0.0422,-0.0351,-0.0352,-0.0443,-0.0447,-0.045,-0.0526,0,0,0,0,0,0,-0.0301,-0.0314,-0.0325,-0.0352,-0.0362,-0.0421,-0.0391,-0.0391,-0.0406,-0.0402,-0.0389,-0.0385,-0.0366,-0.0396,-0.0396,-0.0421,-0.0352,-0.044,-0.0445,-0.0449,-0.052,-0.0532,-0.0542,0,0,0,0,0,-0.0297,-0.0319,-0.0326,-0.0336,-0.038,-0.0422,-0.0426,-0.0423,-0.0407,-0.0422,-0.0425,-0.0385,-0.0425,-0.0399,-0.0398,-0.0423,-0.0437,-0.0443,-0.0449,-0.0516,-0.053,-0.0542,0,0,0,0,0,0,-0.0268,-0.032,-0.0327,-0.0362,-0.0395,-0.0418,-0.0431,-0.0433,-0.0447,-0.0441,-0.042,-0.0418,-0.0453,-0.0438,-0.0409,-0.0469,-0.0424,-0.043,-0.0476,-0.0489,-0.0499,-0.0456,-0.0352,0,0,0,0,0,-0.0273,-0.0307,-0.0349,-0.0378,-0.0397,-0.0417,-0.0431,-0.0437,-0.0455,-0.0459,-0.0456,-0.046,-0.0479,-0.0482,-0.0493,-0.0526,-0.0496,-0.0544,-0.0555,-0.0564,-0.0532,-0.0545,-0.0553,-0.047,-0.047,-0.047,0,0,-0.0268,-0.0302,-0.032,-0.0375,-0.0398,-0.0433,-0.0422,-0.0455,-0.0477,-0.0455,-0.0484,-0.0498,-0.0499,-0.0539,-0.0553,-0.0526,-0.0578,-0.0571,-0.0579,-0.054,-0.0552,-0.0559,-0.0566,-0.0474,-0.0474,-0.0473,0,0,-0.0282,-0.0312,-0.0347,-0.0381,-0.0429,-0.0447,-0.0461,-0.0499,-0.0507,-0.055,-0.0544,-0.0575,-0.0598,-0.0608,-0.0614,-0.0692,-0.0638,-0.0702,-0.0714,-0.073,-0.0735,-0.074,-0.0729,-0.0731,-0.0704,-0.0704,-0.0704,0,-0.0268,-0.0321,-0.0361,-0.0403,-0.0425,-0.0456,-0.0488,-0.0515,-0.0556,-0.0561,-0.0566,-0.0611,-0.0625,-0.0659,-0.0694,-0.0711,-0.0699,-0.0663,-0.074,-0.0744,-0.0747,-0.0734,-0.0736,-0.0708,-0.0708,-0.0707,-0.0707,0,-0.0314,-0.035,-0.0374,-0.0438,-0.047,-0.0505,-0.055,-0.0578,-0.0594,-0.061,-0.065,-0.0683,-0.0693,-0.073,-0.0734,-0.0773,-0.0751,-0.0755,-0.0698,-0.0759,-0.0743,-0.0744,-0.0714,-0.0713,-0.0712,-0.071,0,0,-0.0287,-0.0383,-0.039,-0.0409,-0.0486,-0.0509,-0.0562,-0.0601,-0.0603,-0.066,-0.0659,-0.0737,-0.0735,-0.0742,-0.0764,-0.0788,-0.083,-0.0782,-0.078,-0.0752,-0.0842,-0.0769,-0.0762,-0.0848,-0.0849,-0.0849,-0.0826,0,-0.0301,-0.037,-0.0419,-0.0464,-0.0495,-0.0538,-0.0568,-0.0607,-0.0636,-0.0646,-0.0687,-0.0698,-0.0746,-0.0745,-0.0788,-0.0801,-0.0832,-0.0833,-0.08,-0.0798,-0.0711,-0.076,-0.0694,-0.0663,-0.0826,-0.0827,-0.0827,0,-0.0324,-0.0365,-0.0414,-0.0455,-0.0469,-0.0495,-0.0523,-0.0556,-0.0591,-0.0605,-0.0636,-0.0653,-0.0692,-0.0724,-0.0779,-0.0775,-0.0812,-0.0834,-0.0834,-0.0725,-0.0724,-0.0627,-0.0657,-0.09,-0.0827,-0.0827,-0.0827,0,-0.0278,-0.035,-0.0377,-0.04,-0.0462,-0.047,-0.0492,-0.0534,-0.0522,-0.0561,-0.0531,-0.0607,-0.0581,-0.067,-0.0712,-0.0751,-0.0745,-0.0807,-0.0778,-0.0772,-0.0682,-0.0668,-0.0917,-0.0852,-0.0852,-0.0852,-0.0852,0,-0.0269,-0.0286,-0.0349,-0.0363,-0.0358,-0.0419,-0.0407,-0.0436,-0.0438,-0.0371,-0.0484,-0.0411,-0.0561,-0.0571,-0.0674,-0.069,-0.0716,-0.0762,-0.0761,-0.071,-0.0699,-0.0875,-0.0998,-0.0851,-0.0851,-0.0851,-0.0851,0,-0.0216,-0.0268,-0.0285,-0.0333,-0.0338,-0.0327,-0.0325,-0.0298,-0.0319,-0.0228,-0.0219,-0.024,-0.0231,-0.0369,-0.046,-0.0579,-0.074,-0.0654,-0.0565,-0.0554,-0.0782,-0.0908,-0.1031,-0.1127,-0.0646,-0.0645,-0.0643,0,-0.0196,-0.0206,-0.0238,-0.022,-0.0235,-0.023,-0.0205,-0.0231,-0.0176,-0.0077,0.0008,0.0034,0.0146,0.002,-0.0205,-0.0367,-0.0603,-0.0464,-0.0547,-0.0774,-0.0915,-0.1005,-0.1087,-0.0472,-0.0469,-0.0467,-0.0465,0,-0.0137,-0.0146,-0.0153,-0.0117,-0.0088,-0.0056,-0.0012,0.0069,0.0106,0.0252,0.0484,0.0594,0.0469,0.0369,0.0082,-0.007,-0.0614,-0.0419,-0.0693,-0.0819,-0.0892,-0.0988,-0.0506,-0.0444,-0.0446,-0.0447,-0.0448,-0.0449,-0.0067,-0.004,-0.0029,0.0022,0.006,0.0169,0.0301,0.041,0.0623,0.0955,0.0939,0.1241,0.0873,0.053,0.021,-0.0383,-0.0416,-0.0572,-0.0707,-0.078,-0.0876,-0.0324,-0.0238,-0.0239,-0.024,-0.0241,-0.0241,0,0.0055,0.0081,0.012,0.0213,0.0333,0.0306,0.0488,0.0706,0.1093,0.1368,0.1666,0.1706,0.1267,0.0679,-0.0144,-0.0606,-0.0821,-0.0882,-0.1059,-0.1134,-0.0672,-0.0672,-0.0629,-0.0629,-0.0628,-0.0628,-0.0628,-0.0628,0.0129,0.0219,0.0247,0.0474,0.0559,0.0822,0.0991,0.1321,0.1588,0.2088,0.2328,0.2426,0.1904,0.033,-0.0786,-0.105,-0.1426,-0.1431,-0.1669,-0.1438,-0.1423,-0.1409,-0.1445,-0.1564,-0.1565,-0.207,-0.2075,-0.208]}],[{"header":{"parameterUnit":"m.s-1","parameterCategory":2,"la1":30.2991,"la2":30.254,"lo1":-89.0895,"lo2":-89.0444,"dy":0.0017,"dx":0.0017,"nx":28,"ny":28,"refTime":"2024-06-07T03:00:00:Z","depth":"2","parameterNumber":2,"parameterNumberName":"U-component_of_CURRENTS"},"data":[0,0,0,0,0,0,0,0,0,0,0,0,0,0,0,0,0,0,0,0,0,0,0,0,0,0,0,0,0,0,0,0,0,0,0,0,0,0,0,0,0,0,0,0,0,0,0,0,0,0,0,0,0,0,0,0,0,0,0.1866,0.1867,0,0.1916,0.1917,0.1917,0.1896,0.1895,0.1895,0.1894,0.1886,0.1886,0.1887,0,0,0,0,0,0,0,0,0,0,0,0,0,0.1764,0.1766,0.1866,0.1867,0.1868,0.1916,0.1917,0.1917,0.1897,0.1895,0.1894,0.1893,0.1885,0.1886,0.1887,0,0,0,0,0,0,0,0,0,0,0,0,0,0.1808,0.1766,0.1866,0.1866,0.1867,0.1916,0.1917,0.1917,0.1897,0.1895,0.1894,0.1893,0.1885,0.1886,0.1887,0.192,0,0,0.189,0.189,0,0,0,0,0,0,0,0,0.1805,0.1811,0.1865,0.1866,0.1867,0.1902,0.1878,0.1916,0.1897,0.1882,0.1894,0.1892,0.1889,0.1889,0.1898,0.192,0.1919,0.189,0.1891,0.1891,0.1891,0,0,0,0,0,0,0,0.1802,0.1809,0.1883,0.1866,0.1867,0.1868,0.1872,0.1885,0.1889,0.1883,0.1883,0.1894,0.1888,0.1897,0.1898,0.1919,0.189,0.1891,0.1891,0.1892,0.1987,0.1989,0,0,0,0,0,0,0.1804,0.1806,0.1881,0.1885,0.1836,0.1871,0.1875,0.1889,0.189,0.189,0.1895,0.1893,0.1896,0.1896,0.1897,0.1968,0.1891,0.1892,0.1892,0.1985,0.1988,0.199,0,0,0,0,0,0,0.1802,0.181,0.1879,0.1849,0.1858,0.1874,0.189,0.1891,0.1905,0.19,0.1898,0.1908,0.1895,0.1896,0.1925,0.1965,0.1892,0.1893,0.1983,0.1986,0.1989,0.2088,0,0,0,0,0,0,0.1798,0.1809,0.1822,0.1849,0.186,0.1923,0.1892,0.1893,0.1915,0.1912,0.1911,0.1908,0.1894,0.1924,0.1926,0.1965,0.1894,0.1981,0.1984,0.1988,0.2082,0.2094,0.2104,0,0,0,0,0,0.1795,0.1824,0.1822,0.1832,0.1876,0.1925,0.1931,0.1935,0.1917,0.1938,0.1936,0.1909,0.1949,0.1927,0.1929,0.1969,0.1979,0.1983,0.1988,0.2077,0.2091,0.2104,0,0,0,0,0,0,0.1792,0.1826,0.1824,0.1863,0.1897,0.1923,0.1947,0.1946,0.1962,0.1957,0.1938,0.1937,0.1975,0.1962,0.1939,0.2007,0.1958,0.1963,0.2026,0.2039,0.205,0.2035,0.1895,0,0,0,0,0,0.1798,0.1824,0.1858,0.1891,0.191,0.1929,0.1948,0.1954,0.1973,0.1978,0.1978,0.198,0.1997,0.2008,0.2016,0.2061,0.2058,0.2086,0.2097,0.2107,0.2097,0.2132,0.2145,0.2004,0.2004,0.2004,0,0,0.1805,0.1829,0.1843,0.1892,0.1915,0.1962,0.1937,0.1979,0.2015,0.1976,0.2021,0.2017,0.2016,0.2062,0.2079,0.2057,0.2155,0.2112,0.212,0.2104,0.2138,0.2152,0.2164,0.2007,0.2007,0.2006,0,0,0.1844,0.1858,0.1895,0.1929,0.1975,0.1992,0.2008,0.2044,0.2056,0.2102,0.2083,0.2105,0.213,0.2142,0.2149,0.2227,0.2208,0.2231,0.2281,0.2318,0.2329,0.2339,0.2394,0.2408,0.2242,0.2242,0.2242,0,0.1849,0.19,0.1916,0.1967,0.1998,0.201,0.2061,0.2089,0.2128,0.2145,0.2126,0.2169,0.2169,0.2225,0.2248,0.2252,0.227,0.2233,0.2332,0.2341,0.235,0.2403,0.2417,0.2247,0.2247,0.2246,0.2246,0,0.1921,0.196,0.1991,0.2051,0.209,0.2138,0.2177,0.2212,0.222,0.2238,0.2286,0.2288,0.2309,0.2323,0.2308,0.2375,0.237,0.2339,0.2297,0.237,0.2422,0.2435,0.2255,0.2253,0.2251,0.225,0,0,0.193,0.202,0.2029,0.2061,0.2134,0.2168,0.224,0.2299,0.2328,0.2364,0.2404,0.2441,0.2426,0.2432,0.2425,0.2452,0.2544,0.2423,0.2423,0.2476,0.2645,0.27,0.2719,0.253,0.2532,0.2534,0.2672,0,0.1977,0.2069,0.2107,0.2188,0.2235,0.227,0.233,0.2381,0.2407,0.245,0.2467,0.2493,0.2476,0.2478,0.2516,0.2522,0.2576,0.251,0.2566,0.2568,0.2606,0.2734,0.2502,0.261,0.2684,0.2686,0.2688,0,0.2029,0.2082,0.2162,0.2241,0.2265,0.2308,0.2378,0.2434,0.2499,0.2517,0.2556,0.2558,0.2617,0.2571,0.2661,0.2621,0.2645,0.2651,0.2656,0.2672,0.2646,0.2541,0.263,0.2708,0.2707,0.2705,0.2704,0,0.2008,0.2116,0.2169,0.2199,0.2294,0.2325,0.2374,0.2444,0.248,0.2546,0.2573,0.2637,0.2664,0.2706,0.2761,0.2704,0.286,0.2781,0.2865,0.2869,0.2663,0.2647,0.2851,0.285,0.285,0.285,0.2849,0,0.2033,0.2071,0.2155,0.218,0.2233,0.231,0.2357,0.2411,0.2483,0.2538,0.2593,0.2661,0.2693,0.279,0.2813,0.2924,0.2923,0.2905,0.2919,0.2698,0.2685,0.2739,0.2724,0.2855,0.2854,0.2853,0.2852,0,0.1985,0.205,0.2099,0.2191,0.2215,0.2243,0.2326,0.2358,0.2448,0.2522,0.2546,0.2684,0.2846,0.2925,0.3017,0.3004,0.3082,0.312,0.2885,0.287,0.3043,0.3032,0.3196,0.3199,0.3202,0.3204,0.3206,0,0.1964,0.1987,0.2067,0.208,0.211,0.2165,0.2199,0.2307,0.2349,0.2555,0.259,0.2788,0.2927,0.3136,0.3161,0.3258,0.3263,0.3074,0.2917,0.3088,0.3084,0.3068,0.3053,0.2687,0.2684,0.2682,0.2681,0,0.19,0.192,0.1952,0.1983,0.2011,0.2064,0.2131,0.2172,0.2327,0.2435,0.2637,0.2777,0.3013,0.3037,0.3177,0.3179,0.3035,0.3041,0.3282,0.2658,0.2625,0.2616,0.2614,0.2663,0.2665,0.2666,0.2667,0.2668,0.1813,0.1811,0.184,0.1875,0.1908,0.196,0.2003,0.2104,0.2215,0.2364,0.255,0.2702,0.2802,0.2926,0.2913,0.2904,0.3074,0.2899,0.2896,0.2898,0.2837,0.2814,0.2876,0.2879,0.2881,0.2884,0.2886,0,0.1701,0.1717,0.1733,0.1775,0.1798,0.1859,0.1951,0.1962,0.2097,0.2263,0.2406,0.2325,0.2425,0.2569,0.2528,0.2554,0.2416,0.2465,0.2245,0.227,0.229,0.2187,0.2059,0.2055,0.2052,0.2049,0,0,0.1628,0.1614,0.1648,0.1662,0.1706,0.174,0.1802,0.1811,0.19,0.196,0.2061,0.2248,0.2473,0.2194,0.2205,0.2131,0.2153,0.2054,0.273,0.2494,0.2508,0.2579,0.2457,0,0,0,0,0]},{"header":{"parameterUnit":"m.s-1","parameterCategory":2,"la1":30.2991,"la2":30.254,"lo1":-89.0895,"lo2":-89.0444,"dy":0.0017,"dx":0.0017,"nx":28,"ny":28,"refTime":"2024-06-07T03:00:00:Z","depth":"2","parameterNumber":3,"parameterNumberName":"V-component_of_CURRENTS"},"data":[0,0,0,0,0,0,0,0,0,0,0,0,0,0,0,0,0,0,0,0,0,0,0,0,0,0,0,0,0,0,0,0,0,0,0,0,0,0,0,0,0,0,0,0,0,0,0,0,0,0,0,0,0,0,0,0,0,0,-0.0489,-0.049,0,-0.0566,-0.0567,-0.0568,-0.0633,-0.0634,-0.0635,-0.0636,-0.07,-0.0701,-0.0702,0,0,0,0,0,0,0,0,0,0,0,0,0,-0.041,-0.0411,-0.0489,-0.049,-0.0491,-0.0566,-0.0567,-0.0568,-0.0633,-0.0634,-0.0635,-0.0636,-0.07,-0.0701,-0.0702,0,0,0,0,0,0,0,0,0,0,0,0,0,-0.046,-0.0411,-0.0489,-0.0534,-0.0539,-0.0566,-0.0567,-0.0568,-0.0633,-0.0634,-0.0636,-0.0637,-0.07,-0.0701,-0.0702,-0.0684,0,0,-0.0706,-0.0707,0,0,0,0,0,0,0,0,-0.0457,-0.0462,-0.0526,-0.0531,-0.0537,-0.0593,-0.0563,-0.0607,-0.0633,-0.0596,-0.0636,-0.0638,-0.0663,-0.0668,-0.0677,-0.0688,-0.069,-0.0707,-0.0707,-0.0708,-0.0708,0,0,0,0,0,0,0,-0.0453,-0.0459,-0.0518,-0.0527,-0.0534,-0.0555,-0.0563,-0.0571,-0.062,-0.0599,-0.0604,-0.0615,-0.0666,-0.0676,-0.0679,-0.0691,-0.0707,-0.0708,-0.0709,-0.0709,-0.075,-0.075,0,0,0,0,0,0,-0.0445,-0.0456,-0.0516,-0.052,-0.0501,-0.0555,-0.0564,-0.0572,-0.062,-0.0629,-0.0614,-0.0618,-0.0673,-0.0678,-0.0682,-0.0714,-0.0708,-0.0709,-0.071,-0.0749,-0.075,-0.075,0,0,0,0,0,0,-0.0443,-0.0449,-0.0512,-0.0491,-0.0501,-0.0555,-0.0563,-0.0573,-0.0594,-0.0632,-0.0641,-0.0626,-0.0674,-0.068,-0.0701,-0.0715,-0.071,-0.0711,-0.0749,-0.0749,-0.075,-0.0746,0,0,0,0,0,0,-0.044,-0.0448,-0.0447,-0.0491,-0.0502,-0.0525,-0.0563,-0.0574,-0.0599,-0.0605,-0.0645,-0.0652,-0.0676,-0.0699,-0.0703,-0.0717,-0.0712,-0.0749,-0.0749,-0.075,-0.0745,-0.0746,-0.0746,0,0,0,0,0,-0.0437,-0.0425,-0.0446,-0.0453,-0.05,-0.0525,-0.0532,-0.0574,-0.0598,-0.0599,-0.0635,-0.0651,-0.0705,-0.07,-0.0704,-0.0719,-0.0748,-0.0749,-0.075,-0.0745,-0.0746,-0.0746,0,0,0,0,0,0,-0.0393,-0.0433,-0.0456,-0.0459,-0.049,-0.0537,-0.054,-0.0571,-0.0601,-0.061,-0.0649,-0.0657,-0.0684,-0.0696,-0.0689,-0.0732,-0.0731,-0.0733,-0.0727,-0.0727,-0.0728,-0.0701,-0.0713,0,0,0,0,0,-0.0381,-0.0384,-0.0429,-0.0432,-0.0445,-0.0493,-0.0508,-0.0539,-0.0574,-0.0589,-0.0624,-0.0658,-0.0686,-0.0702,-0.0723,-0.0738,-0.0754,-0.0752,-0.0752,-0.0753,-0.0734,-0.0786,-0.0789,-0.0752,-0.0752,-0.0752,0,0,-0.0367,-0.0388,-0.0392,-0.0423,-0.045,-0.0456,-0.0505,-0.0527,-0.054,-0.0589,-0.0615,-0.0656,-0.0689,-0.0717,-0.0729,-0.0731,-0.0772,-0.0753,-0.0754,-0.0734,-0.0787,-0.0791,-0.0794,-0.0752,-0.0752,-0.0752,0,0,-0.0329,-0.0357,-0.0344,-0.0363,-0.0401,-0.043,-0.0436,-0.0488,-0.0519,-0.0551,-0.0595,-0.0638,-0.0679,-0.0711,-0.073,-0.0738,-0.077,-0.0756,-0.074,-0.0791,-0.0795,-0.0798,-0.0822,-0.0828,-0.0759,-0.0759,-0.0759,0,-0.031,-0.0302,-0.0344,-0.0336,-0.0346,-0.0415,-0.0404,-0.0441,-0.0499,-0.0522,-0.0556,-0.0639,-0.0674,-0.0706,-0.0723,-0.0739,-0.0768,-0.0738,-0.0792,-0.0796,-0.0799,-0.0823,-0.0829,-0.0759,-0.0759,-0.0759,-0.0759,0,-0.0264,-0.026,-0.0253,-0.0266,-0.0282,-0.0286,-0.0341,-0.0371,-0.0426,-0.0475,-0.0534,-0.0598,-0.0649,-0.0678,-0.0707,-0.0751,-0.0764,-0.0787,-0.0791,-0.0803,-0.0827,-0.0834,-0.0759,-0.0759,-0.0759,-0.0759,0,0,-0.0213,-0.0218,-0.0216,-0.0206,-0.0246,-0.0251,-0.0276,-0.0317,-0.0334,-0.0422,-0.0451,-0.0537,-0.0599,-0.0623,-0.068,-0.0728,-0.0791,-0.0772,-0.0775,-0.0793,-0.0895,-0.0807,-0.0806,-0.0839,-0.084,-0.0841,-0.0902,0,-0.0164,-0.0124,-0.0148,-0.0118,-0.0103,-0.0164,-0.0179,-0.0231,-0.0294,-0.0342,-0.0441,-0.0493,-0.0572,-0.0608,-0.0676,-0.0752,-0.0808,-0.077,-0.0881,-0.0883,-0.0803,-0.081,-0.0776,-0.082,-0.0909,-0.091,-0.091,0,-0.0109,-0.0088,-0.0049,-0.0041,-0.0041,-0.0049,-0.0082,-0.0103,-0.0192,-0.0249,-0.0336,-0.0414,-0.0504,-0.0571,-0.0721,-0.0701,-0.0797,-0.0861,-0.0866,-0.0783,-0.0806,-0.0823,-0.0828,-0.0921,-0.092,-0.092,-0.0919,0,-0.0043,-0.0017,0.0019,0.002,0.001,0.0001,-0.0019,-0.0086,-0.0096,-0.0197,-0.0217,-0.0352,-0.0409,-0.0553,-0.069,-0.0725,-0.0831,-0.0898,-0.0906,-0.0901,-0.0887,-0.0877,-0.1005,-0.1005,-0.1005,-0.1005,-0.1004,0,0.0027,0.0057,0.0045,0.0065,0.0096,0.0057,0.0065,0.002,-0.003,-0.0014,-0.0173,-0.0166,-0.0412,-0.0499,-0.0653,-0.0767,-0.0811,-0.0887,-0.0908,-0.0882,-0.0871,-0.097,-0.0965,-0.1007,-0.1006,-0.1006,-0.1005,0,0.0097,0.0092,0.0134,0.0129,0.0127,0.0141,0.0131,0.0141,0.0075,0.0096,0.007,-0.0045,-0.0146,-0.0349,-0.0551,-0.0687,-0.082,-0.0853,-0.0781,-0.0791,-0.0876,-0.0871,-0.0896,-0.0893,-0.0891,-0.0889,-0.0888,0,0.0138,0.0165,0.0183,0.0203,0.0197,0.0209,0.0222,0.0183,0.0215,0.0211,0.0249,0.0152,0.0154,-0.0097,-0.0383,-0.0621,-0.0701,-0.0743,-0.0802,-0.0845,-0.0865,-0.0862,-0.086,-0.08,-0.0798,-0.0796,-0.0795,0,0.0211,0.0204,0.0235,0.0275,0.0295,0.0346,0.0373,0.0432,0.0425,0.0486,0.0586,0.06,0.0341,0.0129,-0.0218,-0.0393,-0.0705,-0.0709,-0.0793,-0.0803,-0.0752,-0.0771,-0.0773,-0.0779,-0.0781,-0.0782,-0.0783,-0.0783,0.0246,0.0277,0.0299,0.0341,0.0386,0.0478,0.0555,0.0647,0.0775,0.088,0.0863,0.0889,0.0564,0.016,-0.0143,-0.0517,-0.0544,-0.0689,-0.0697,-0.0706,-0.0654,-0.0598,-0.0587,-0.0588,-0.0588,-0.0588,-0.0589,0,0.0275,0.0301,0.0359,0.0424,0.0508,0.051,0.0654,0.0763,0.0985,0.1084,0.1174,0.0927,0.0682,0.0307,-0.0219,-0.051,-0.0598,-0.0601,-0.0665,-0.0677,-0.0688,-0.0639,-0.0567,-0.0568,-0.0568,-0.0569,0,0,0.0283,0.0336,0.037,0.0503,0.0566,0.0701,0.0806,0.1004,0.1127,0.1289,0.1305,0.1212,0.0802,0.0431,0.0012,-0.0271,-0.0407,-0.033,-0.0315,-0.0351,-0.0359,-0.0705,-0.0635,0,0,0,0,0]}],[{"header":{"parameterUnit":"m.s-1","parameterCategory":2,"la1":30.2991,"la2":30.254,"lo1":-89.0895,"lo2":-89.0444,"dy":0.0017,"dx":0.0017,"nx":28,"ny":28,"refTime":"2024-06-07T03:00:00:Z","depth":"4","parameterNumber":2,"parameterNumberName":"U-component_of_CURRENTS"},"data":[0,0,0,0,0,0,0,0,0,0,0,0,0,0,0,0,0,0,0,0,0,0,0,0,0,0,0,0,0,0,0,0,0,0,0,0,0,0,0,0,0,0,0,0,0,0,0,0,0,0,0,0,0,0,0,0,0,0,0.0983,0.0984,0,0.1013,0.1013,0.1013,0.1035,0.1035,0.1036,0.1036,0.1047,0.1047,0.1047,0,0,0,0,0,0,0,0,0,0,0,0,0,0.0958,0.0958,0.0983,0.0984,0.0985,0.1013,0.1013,0.1013,0.1035,0.1035,0.1036,0.1036,0.1047,0.1047,0.1047,0,0,0,0,0,0,0,0,0,0,0,0,0,0.0973,0.0958,0.0983,0.1001,0.1003,0.1013,0.1013,0.1013,0.1034,0.1035,0.1036,0.1036,0.1047,0.1047,0.1047,0.1032,0,0,0.1046,0.1046,0,0,0,0,0,0,0,0,0.0972,0.0974,0.0998,0.1,0.1002,0.1024,0.1008,0.102,0.1034,0.1019,0.1036,0.1037,0.1039,0.104,0.1039,0.1032,0.1033,0.1046,0.1046,0.1046,0.1046,0,0,0,0,0,0,0,0.0971,0.0973,0.0992,0.0998,0.1001,0.1012,0.1014,0.101,0.1022,0.1021,0.1023,0.1031,0.104,0.104,0.104,0.1033,0.1046,0.1046,0.1046,0.1046,0.1114,0.1116,0,0,0,0,0,0,0.0972,0.0972,0.0991,0.0993,0.0992,0.1012,0.1015,0.1013,0.1023,0.1026,0.103,0.1032,0.104,0.104,0.104,0.1113,0.1046,0.1046,0.1046,0.1112,0.1114,0.1116,0,0,0,0,0,0,0.0971,0.0973,0.099,0.0986,0.0989,0.1012,0.101,0.1014,0.1038,0.1031,0.1033,0.1054,0.104,0.1041,0.1065,0.111,0.1046,0.1046,0.111,0.1113,0.1115,0.12,0,0,0,0,0,0,0.097,0.0972,0.0985,0.0986,0.099,0.1008,0.101,0.1014,0.1042,0.1044,0.1051,0.1052,0.1041,0.1066,0.1065,0.1108,0.1045,0.1107,0.1111,0.1114,0.1195,0.1205,0.1214,0,0,0,0,0,0.0969,0.0978,0.0985,0.0989,0.1001,0.1009,0.1012,0.1028,0.1042,0.1053,0.1068,0.1053,0.1089,0.1067,0.1065,0.111,0.1106,0.111,0.1114,0.119,0.1203,0.1214,0,0,0,0,0,0,0.0973,0.0981,0.0989,0.1,0.1012,0.1014,0.1032,0.1042,0.1062,0.1078,0.1067,0.1069,0.1112,0.1096,0.1072,0.1142,0.1099,0.1103,0.1157,0.1169,0.1179,0.1187,0.1045,0,0,0,0,0,0.098,0.0992,0.0997,0.1011,0.1017,0.103,0.1042,0.1056,0.1069,0.1079,0.1093,0.1109,0.1124,0.1134,0.1144,0.1171,0.1175,0.1203,0.1213,0.1221,0.1229,0.1271,0.1285,0.1131,0.1131,0.113,0,0,0.0985,0.0995,0.1001,0.1014,0.1025,0.104,0.1039,0.1067,0.1094,0.1076,0.1129,0.1144,0.114,0.1181,0.1199,0.1176,0.1272,0.1227,0.1234,0.1237,0.1277,0.1292,0.1305,0.1134,0.1133,0.1133,0,0,0.0995,0.101,0.102,0.1034,0.1062,0.107,0.1083,0.1108,0.1134,0.1177,0.1183,0.1228,0.1244,0.1262,0.1267,0.1335,0.1324,0.1342,0.1397,0.1438,0.1451,0.1462,0.1504,0.1519,0.1345,0.1345,0.1345,0,0.1008,0.1014,0.1026,0.1042,0.1061,0.1085,0.1103,0.113,0.117,0.1206,0.1208,0.1283,0.1285,0.1336,0.1367,0.1359,0.1377,0.135,0.1451,0.1462,0.1473,0.1512,0.1527,0.135,0.1349,0.1349,0.1348,0,0.1015,0.1034,0.1043,0.1071,0.1094,0.1117,0.1151,0.1196,0.1239,0.1277,0.1358,0.1374,0.1425,0.1435,0.142,0.15,0.149,0.1461,0.142,0.1493,0.1531,0.1545,0.1356,0.1355,0.1353,0.1352,0,0,0.1004,0.104,0.1047,0.1066,0.1114,0.113,0.1191,0.1248,0.1303,0.1369,0.1443,0.1495,0.1537,0.1545,0.1549,0.1579,0.1676,0.1557,0.1557,0.1597,0.1777,0.1679,0.1685,0.1665,0.1667,0.1669,0.178,0,0.1007,0.1035,0.106,0.1101,0.1115,0.1168,0.1216,0.1286,0.1353,0.1436,0.1497,0.157,0.1569,0.1608,0.1648,0.1671,0.1714,0.1649,0.1701,0.1703,0.1605,0.1698,0.1677,0.1791,0.1794,0.1796,0.1798,0,0.0995,0.102,0.1051,0.1113,0.1127,0.1166,0.126,0.1315,0.1435,0.1488,0.1591,0.165,0.1749,0.1714,0.1821,0.1783,0.1798,0.1799,0.1803,0.1688,0.163,0.1698,0.1822,0.182,0.1818,0.1817,0.1815,0,0.0959,0.1013,0.104,0.106,0.1132,0.1177,0.1236,0.1345,0.1407,0.1546,0.1615,0.1734,0.1805,0.1859,0.1909,0.188,0.1992,0.195,0.1876,0.1869,0.1884,0.187,0.2014,0.2014,0.2014,0.2013,0.2013,0,0.0933,0.0959,0.1031,0.1045,0.1097,0.117,0.1255,0.1321,0.1444,0.1525,0.1659,0.1733,0.1843,0.193,0.1952,0.1973,0.2046,0.1909,0.1897,0.1919,0.1908,0.1895,0.1879,0.2017,0.2016,0.2016,0.2015,0,0.0875,0.0921,0.0953,0.1039,0.1074,0.1118,0.1249,0.1308,0.1436,0.1545,0.1603,0.1765,0.1887,0.1979,0.2061,0.2017,0.2044,0.202,0.2064,0.2049,0.1885,0.1873,0.1969,0.1967,0.1965,0.1963,0.1962,0,0.0841,0.0851,0.0932,0.0954,0.0996,0.1084,0.1139,0.1278,0.1344,0.1548,0.1585,0.1767,0.1865,0.1931,0.2011,0.2076,0.2035,0.2035,0.194,0.1904,0.1884,0.1875,0.1866,0.1958,0.1958,0.1957,0.1957,0,0.0778,0.0811,0.084,0.0888,0.0943,0.0999,0.1099,0.1138,0.1305,0.1436,0.1555,0.1658,0.1783,0.1876,0.1937,0.1964,0.2033,0.2013,0.2016,0.1927,0.1892,0.1872,0.1865,0.195,0.1951,0.1951,0.1952,0,0.0731,0.0731,0.0778,0.0815,0.0874,0.0904,0.0967,0.1066,0.1159,0.1383,0.1415,0.1612,0.1754,0.1819,0.1877,0.191,0.1879,0.18,0.1814,0.1823,0.1723,0.1655,0.1652,0,0,0,0,0,0.0674,0.0676,0.0704,0.0741,0.0795,0.0838,0.0935,0.1006,0.1173,0.1219,0.1319,0.1441,0.1571,0.1672,0.1681,0.1808,0.1872,0.1809,0.1783,0.1911,0.1919,0.1815,0,0,0,0,0,0,0.0638,0.066,0.0679,0.0684,0.0698,0.0756,0.0814,0.0914,0.0959,0.1131,0.1217,0.1353,0.1504,0.1561,0.1657,0.1685,0.1638,0.1928,0.1924,0.1906,0.1913,0.192,0.1816,0,0,0,0,0]},{"header":{"parameterUnit":"m.s-1","parameterCategory":2,"la1":30.2991,"la2":30.254,"lo1":-89.0895,"lo2":-89.0444,"dy":0.0017,"dx":0.0017,"nx":28,"ny":28,"refTime":"2024-06-07T03:00:00:Z","depth":"4","parameterNumber":3,"parameterNumberName":"V-component_of_CURRENTS"},"data":[0,0,0,0,0,0,0,0,0,0,0,0,0,0,0,0,0,0,0,0,0,0,0,0,0,0,0,0,0,0,0,0,0,0,0,0,0,0,0,0,0,0,0,0,0,0,0,0,0,0,0,0,0,0,0,0,0,0,0.0135,0.0135,0,0.0142,0.0142,0.0142,0.0115,0.0114,0.0113,0.0113,0.0107,0.0108,0.0109,0,0,0,0,0,0,0,0,0,0,0,0,0,0.0085,0.0086,0.0135,0.0135,0.0135,0.0142,0.0142,0.0142,0.0115,0.0114,0.0113,0.0112,0.0107,0.0108,0.0109,0,0,0,0,0,0,0,0,0,0,0,0,0,0.0101,0.0087,0.0135,0.0123,0.0122,0.0142,0.0142,0.0142,0.0115,0.0114,0.0113,0.0112,0.0107,0.0108,0.0109,0.0138,0,0,0.0112,0.0112,0,0,0,0,0,0,0,0,0.01,0.0103,0.0124,0.0124,0.0122,0.0127,0.0123,0.014,0.0115,0.0117,0.0112,0.0111,0.0114,0.0114,0.0118,0.0138,0.0138,0.0112,0.0112,0.0113,0.0113,0,0,0,0,0,0,0,0.0099,0.0102,0.0138,0.0125,0.0123,0.0112,0.0113,0.0126,0.0122,0.0117,0.0115,0.0117,0.0113,0.0117,0.0118,0.0138,0.0112,0.0112,0.0113,0.0113,0.0162,0.0163,0,0,0,0,0,0,0.0101,0.0101,0.0137,0.0138,0.0108,0.0114,0.0115,0.0126,0.0122,0.012,0.0118,0.0115,0.0116,0.0117,0.0117,0.0164,0.0113,0.0113,0.0114,0.0161,0.0162,0.0163,0,0,0,0,0,0,0.01,0.0104,0.0137,0.0119,0.0122,0.0117,0.0129,0.0127,0.0133,0.0123,0.012,0.0126,0.0115,0.0116,0.0137,0.0163,0.0114,0.0115,0.016,0.0161,0.0163,0.0251,0,0,0,0,0,0,0.0099,0.0104,0.0119,0.012,0.0124,0.0164,0.013,0.0128,0.0136,0.0133,0.0129,0.0127,0.0114,0.0135,0.0138,0.0164,0.0115,0.0159,0.0161,0.0162,0.0247,0.0255,0.0261,0,0,0,0,0,0.0097,0.0129,0.012,0.0124,0.0142,0.0166,0.0168,0.0158,0.0138,0.0155,0.0146,0.0127,0.0145,0.0138,0.014,0.0167,0.0159,0.016,0.0162,0.0244,0.0253,0.0261,0,0,0,0,0,0,0.0118,0.0129,0.0119,0.0153,0.0162,0.0161,0.0181,0.0166,0.0174,0.017,0.0148,0.0147,0.0171,0.0157,0.0149,0.0181,0.0145,0.0147,0.0206,0.0215,0.0222,0.0226,0.0116,0,0,0,0,0,0.0129,0.0152,0.0157,0.0183,0.0193,0.0186,0.0194,0.0187,0.019,0.0191,0.0185,0.0177,0.0181,0.0188,0.0188,0.0218,0.0168,0.023,0.0238,0.0244,0.0247,0.0188,0.0191,0.0168,0.0168,0.0168,0,0,0.0143,0.0152,0.0164,0.0189,0.0195,0.0228,0.0189,0.0212,0.0236,0.0192,0.0225,0.0207,0.0193,0.0221,0.023,0.0213,0.0224,0.0246,0.0252,0.0252,0.019,0.0192,0.0194,0.017,0.0169,0.0169,0,0,0.019,0.0194,0.0233,0.0248,0.0265,0.0265,0.0273,0.0279,0.0281,0.031,0.0276,0.0273,0.029,0.0279,0.0277,0.0325,0.0263,0.0322,0.0371,0.0314,0.0315,0.0316,0.0256,0.025,0.0329,0.0329,0.0329,0,0.0206,0.0254,0.0248,0.0291,0.031,0.0286,0.0331,0.0338,0.0346,0.0348,0.0333,0.0328,0.0318,0.0335,0.035,0.0343,0.0294,0.0343,0.0324,0.0323,0.0322,0.026,0.0253,0.0333,0.0333,0.0332,0.0332,0,0.0282,0.0321,0.0348,0.0391,0.0411,0.0447,0.0453,0.0466,0.0458,0.0449,0.0458,0.0436,0.0424,0.0423,0.0409,0.0402,0.0363,0.0338,0.0303,0.0329,0.0263,0.0253,0.034,0.0338,0.0337,0.0336,0,0,0.0315,0.0388,0.0397,0.043,0.0466,0.0489,0.0532,0.0556,0.0569,0.0564,0.0572,0.0575,0.0531,0.0524,0.0491,0.0451,0.0406,0.04,0.0395,0.0343,0.0271,0.0222,0.0206,0.0372,0.0371,0.037,0.0228,0,0.0376,0.0471,0.0489,0.057,0.0617,0.0612,0.0651,0.0661,0.0655,0.0655,0.0615,0.0613,0.0579,0.0568,0.0525,0.0432,0.0385,0.0446,0.0251,0.0245,0.02,0.0196,0.0366,0.0221,0.0219,0.0217,0.0216,0,0.0442,0.0497,0.0593,0.0654,0.0674,0.0714,0.0748,0.0781,0.0769,0.0757,0.0732,0.0687,0.0642,0.0601,0.0457,0.0494,0.0395,0.0318,0.031,0.0226,0.0178,0.0186,0.0198,0.0199,0.0201,0.0202,0.0203,0,0.0466,0.0563,0.0639,0.0665,0.0735,0.0769,0.08,0.0811,0.0831,0.0814,0.0803,0.0736,0.0692,0.0572,0.0419,0.0432,0.0236,0.0229,0.009,0.0085,0.0133,0.0134,0.0119,0.012,0.012,0.012,0.0121,0,0.0518,0.0578,0.0658,0.0701,0.0774,0.081,0.087,0.0881,0.0891,0.0896,0.0854,0.082,0.0678,0.0552,0.042,0.0217,0.0229,0.0091,0.0044,0.0174,0.0181,0.0126,0.0129,0.0115,0.0116,0.0117,0.0118,0,0.0532,0.0592,0.0675,0.0761,0.0793,0.0842,0.0918,0.0945,0.0957,0.0956,0.0951,0.0864,0.0696,0.0536,0.0319,0.0209,0.003,-0.0046,0.0097,0.006,-0.0082,-0.0073,-0.0206,-0.0209,-0.0212,-0.0214,-0.0216,0,0.0551,0.06,0.0706,0.075,0.0795,0.0876,0.0923,0.097,0.0989,0.0968,0.0952,0.0819,0.0731,0.0398,0.0232,-0.0036,-0.007,-0.0159,-0.0104,-0.0083,-0.0116,-0.0103,-0.0091,-0.022,-0.022,-0.0221,-0.0221,0,0.0569,0.0604,0.0665,0.0755,0.0821,0.0896,0.0963,0.098,0.1011,0.1021,0.0929,0.078,0.0582,0.0364,0.0149,-0.0036,-0.0093,-0.0185,-0.018,-0.0129,-0.0101,-0.0128,-0.0113,-0.023,-0.0229,-0.0228,-0.0228,0,0.0562,0.0594,0.0667,0.0737,0.0822,0.088,0.0931,0.0947,0.0972,0.0952,0.0908,0.0734,0.064,0.0359,0.0161,-0.0028,-0.0063,-0.0105,-0.0105,-0.0098,-0.0019,0.0037,-0.0098,0,0,0,0,0,0.0544,0.0572,0.0641,0.0717,0.0797,0.0846,0.0932,0.0973,0.1003,0.0933,0.0926,0.0744,0.0458,0.0349,0.0148,0.0108,-0.0101,-0.0134,-0.015,-0.0278,-0.0268,-0.0198,0,0,0,0,0,0,0.053,0.0587,0.0621,0.068,0.0724,0.081,0.0867,0.0896,0.0868,0.0874,0.073,0.0678,0.0407,0.0555,0.0133,0.008,0.004,-0.0255,-0.0259,-0.0284,-0.0275,-0.0267,-0.0191,0,0,0,0,0]}]]